Regional Weather Roundup
Issued by NWS Goodland, KS

Home | Current Version | Previous Version | Graphics & Text | Print | Product List | Glossary On
Versions: 1 2 3 4 5 6 7 8 9 10 11 12 13 14 15 16 17 18 19 20 21 22 23 24 25 26 27 28 29 30 31 32 33 34 35 36 37 38 39 40 41 42 43 44 45 46 47 48 49 50
820
ASUS43 KGLD 060608
RWRGLD

GOODLAND FORECAST AREA HOURLY WEATHER ROUNDUP
NATIONAL WEATHER SERVICE GOODLAND KS
1200 AM MDT FRI MAY 06 2016

...OFFICIAL OBSERVATIONS...

CITY           SKY/WX    TMP DP  RH WIND       PRES   REMARKS
GOODLAND KS    CLOUDY    56  48  74 S14       30.05R
HILL CITY KS   CLOUDY    62  46  55 S9        30.04R
IMPERIAL NEB   CLOUDY    61  48  62 S12       30.02R
MCCOOK NEB     CLOUDY    62  46  55 S13       30.02R
AKRON CO       CLOUDY    60  42  51 S21       30.04S
BURLINGTON CO  CLOUDY    56  45  66 S14       30.06S
LIMON CO       CLOUDY    48  42  80 SE5       30.08F
$$

...UNOFFICIAL OBSERVATIONS...

CITY           SKY/WX    TMP DP  RH WIND       PRES   REMARKS
COLBY KS       CLEAR     59  52  77 S13       30.07R
LENORA KS        N/A     56  32  40 MISG        N/A
NORTON KS      CLEAR     59  41  51 S7        30.03R
SHARON SPRINGS   N/A     57  49  74 S12         N/A
TRIBUNE KS     CLOUDY    59  48  67 SE13      30.08
KIT CARSON CO    N/A     62  46  55 MISG        N/A
YUMA CO          N/A     56  45  67 SW10        N/A
$$




USA.gov is the U.S. government's official web portal to all federal, state and local government web resources and services.